THOR ABLESTAR DEB, 254

Orbit data source: Space-Track

THOR ABLESTAR DEB, 254 is space debris in LEO originally from a launch on Thu, 29 Jun 1961 UTC launched from the Air Force Eastern Test Range (AFETR). Debris objects in space refer to the collection of defunct objects orbiting the Earth. Examples of debris include non-operational satellites, rocket bodies, and fragments generated from explosions, collisions, or faulty payload assembly.

Loading next visibility...
Identifier
254, 1961-015CF
Orbit
LEO
Country
Flag of USUS
Related business
Manufacturer
Unknown
Mission
Spacecraft
Bus & Motor
Unknown
Mass
Unknown
Launch date (UTC)
1961-06-29 (64 years ago)
Launch vehicle
Unknown
Launch site
Air Force Eastern Test Range (AFETR)
Object type
Payload
Rocket body
Debris
Shape & HBR
Unknown shape, 0.1 m
Radar Cross Section
Small (<0.1 m²)

Expand to show TLE details & history
Last TLE update: 11 hours ago

TLE from 11 hours ago
0 THOR ABLESTAR DEB
1   254U 61015CF  25312.56826637  .00003567  00000-0  88539-3 0  9997
2   254  66.7712 155.4680 0068342 247.9842 111.3998 14.51599674341641
Epoch: 2025-11-08T13:38Z
TLE epoch observation values (Epoch: 2025-11-08T13:38:18.214Z)
Latitude
-0.00003°
Longitude
-97.10391°
Altitude
740.552 km
Speed
7.476 km/s
True Right ascension
10h 21m 52s
True Declination
0° 00' 00"
Sunlit
Object was in daylight at epoch
Visualization orbit readout
Latitude
Unknown
Longitude
Unknown
Altitude
Unknown
Speed
Unknown
Apparent Right ascension
Unknown
Apparent Declination
Unknown
Sunlit
N/A
Visualization observer readout
Local Sidereal Time
20:24:23
Azimuth
Unknown
Elevation
Unknown
Doppler factor
Unknown
Orbital elements
Apogee altitude
767.28 km
Perigee altitude
670.277 km
Semi-major axis
7,096.916 km
Eccentricity
0.00683
Inclination
66.7712°
RAAN
155.468°
Arg. of periapsis
247.9842°
True anomaly
112.12666°
Mean anomaly
111.3998°
Eccentric anomaly
111.76346°
Mean motion
3.63027 °/min
Orbital period
99.17 mins
BSTAR
0.00088539
Loading maneuver chart data...
Computing Atmospheric mass density...

Documentation

Showing up to 5 results
|